When you browse on this site, cookies collect data to enhance your experience and personalize the content and advertising you see.
Visit our Privacy Policy to learn more. By continuing to use the site, you agree to this use of cookies and data.
  • In Hungary
  • List of Countries
  • For 7 days
  • Water Temperature
  • Satellite Maps
  • Weather Map
  • News
  • Weather Widgets
  • user-avatar
    Login

    Hourly Weather Emilcin

    Today, 26 May, Sunday

    Time Temperature Precipitation Wind Pressure Humidity
    00:00 +13°C° 0 mm 2 mps 745 mmHg 92%
    01:00 +12°C° 0 mm 1 mps 745 mmHg 93%
    02:00 +12°C° 0 mm 1 mps 745 mmHg 93%
    03:00 +12°C° 0 mm 2 mps 746 mmHg 93%
    04:00 +10°C° 0 mm 2 mps 746 mmHg 94%
    05:00 +13°C° 0 mm 2 mps 746 mmHg 88%
    06:00 +15°C° 0 mm 2 mps 746 mmHg 83%
    07:00 +16°C° 0 mm 2 mps 746 mmHg 76%
    08:00 +17°C° 0 mm 3 mps 746 mmHg 72%
    09:00 +18°C° 0 mm 3 mps 746 mmHg 69%
    10:00 +19°C° 0 mm 4 mps 746 mmHg 65%
    11:00 +20°C° 0 mm 4 mps 746 mmHg 61%
    12:00 +21°C° 0 mm 4 mps 746 mmHg 58%
    13:00 +22°C° 0 mm 4 mps 745 mmHg 54%
    14:00 +22°C° 0 mm 4 mps 745 mmHg 55%
    15:00 +22°C° 0 mm 4 mps 745 mmHg 55%
    16:00 +22°C° 0 mm 4 mps 745 mmHg 56%
    17:00 +21°C° 0 mm 3 mps 745 mmHg 62%
    18:00 +19°C° 0 mm 2 mps 744 mmHg 68%
    19:00 +18°C° 0 mm 2 mps 744 mmHg 75%
    20:00 +17°C° 0 mm 2 mps 744 mmHg 78%
    21:00 +16°C° 0 mm 1 mps 745 mmHg 80%
    22:00 +15°C° 0 mm 1 mps 745 mmHg 83%
    23:00 +14°C° 0 mm 2 mps 745 mmHg 85%

    Tomorrow, 27 May, Monday

    Time Temperature Precipitation Wind Pressure Humidity
    00:00 +14°C° 0 mm 2 mps 745 mmHg 87%
    01:00 +14°C° 0 mm 2 mps 745 mmHg 89%
    02:00 +14°C° 0 mm 2 mps 744 mmHg 90%
    03:00 +13°C° 0 mm 3 mps 744 mmHg 92%
    04:00 +12°C° 0 mm 3 mps 744 mmHg 94%
    05:00 +14°C° 0 mm 3 mps 744 mmHg 89%
    06:00 +17°C° 0 mm 4 mps 744 mmHg 83%
    07:00 +19°C° 0 mm 4 mps 744 mmHg 78%
    08:00 +20°C° 0 mm 4 mps 744 mmHg 73%
    09:00 +22°C° 0 mm 4 mps 744 mmHg 67%
    10:00 +25°C° 0 mm 5 mps 744 mmHg 62%
    11:00 +25°C° 0.6 mm 5 mps 744 mmHg 62%
    12:00 +25°C° 0.6 mm 5 mps 744 mmHg 62%
    13:00 +25°C° 0.6 mm 5 mps 743 mmHg 62%
    14:00 +25°C° 0.3 mm 5 mps 743 mmHg 64%
    15:00 +25°C° 0.3 mm 5 mps 743 mmHg 65%
    16:00 +24°C° 0.3 mm 6 mps 743 mmHg 67%
    17:00 +22°C° 0 mm 5 mps 743 mmHg 72%
    18:00 +21°C° 0 mm 4 mps 743 mmHg 77%
    19:00 +19°C° 0 mm 3 mps 742 mmHg 82%
    20:00 +18°C° 0 mm 3 mps 742 mmHg 85%
    21:00 +18°C° 0 mm 3 mps 742 mmHg 87%
    22:00 +17°C° 0 mm 3 mps 742 mmHg 90%
    23:00 +17°C° 0.2 mm 3 mps 742 mmHg 91%

    Day after tomorrow, 28 May, Tuesday

    Time Temperature Precipitation Wind Pressure Humidity
    00:00 +17°C° 0.2 mm 3 mps 742 mmHg 92%
    01:00 +17°C° 0.2 mm 3 mps 741 mmHg 93%
    02:00 +17°C° 0.8 mm 3 mps 741 mmHg 94%
    03:00 +17°C° 0.8 mm 3 mps 741 mmHg 95%
    04:00 +17°C° 0.8 mm 3 mps 740 mmHg 96%
    05:00 +18°C° 0.3 mm 4 mps 740 mmHg 93%
    06:00 +19°C° 0.3 mm 4 mps 740 mmHg 90%
    07:00 +20°C° 0.3 mm 5 mps 740 mmHg 87%
    08:00 +21°C° 0 mm 5 mps 740 mmHg 82%
    09:00 +22°C° 0 mm 5 mps 740 mmHg 77%
    10:00 +25°C° 0 mm 5 mps 739 mmHg 72%
    11:00 +25°C° 0.1 mm 5 mps 739 mmHg 69%
    12:00 +26°C° 0.1 mm 5 mps 739 mmHg 65%
    13:00 +27°C° 0.1 mm 5 mps 739 mmHg 61%
    14:00 +26°C° 1.4 mm 5 mps 739 mmHg 66%
    15:00 +25°C° 1.4 mm 5 mps 738 mmHg 71%
    16:00 +23°C° 1.4 mm 4 mps 738 mmHg 75%
    17:00 +22°C° 2 mm 4 mps 738 mmHg 79%
    18:00 +21°C° 2 mm 4 mps 738 mmHg 82%
    19:00 +20°C° 2 mm 5 mps 737 mmHg 86%
    20:00 +19°C° 1.9 mm 4 mps 737 mmHg 88%
    21:00 +19°C° 1.9 mm 4 mps 737 mmHg 91%
    22:00 +18°C° 1.9 mm 3 mps 737 mmHg 93%
    23:00 +17°C° 0 mm 3 mps 738 mmHg 93%

    29 May, Wednesday

    Time Temperature Precipitation Wind Pressure Humidity
    00:00 +17°C° 0 mm 3 mps 738 mmHg 93%
    01:00 +16°C° 0 mm 3 mps 738 mmHg 93%
    02:00 +16°C° 0 mm 3 mps 738 mmHg 95%
    03:00 +16°C° 0 mm 3 mps 738 mmHg 96%
    04:00 +14°C° 0 mm 3 mps 739 mmHg 97%
    05:00 +16°C° 0.1 mm 3 mps 739 mmHg 95%
    06:00 +17°C° 0.1 mm 3 mps 739 mmHg 94%
    07:00 +18°C° 0.1 mm 3 mps 740 mmHg 92%
    08:00 +17°C° 0.1 mm 4 mps 740 mmHg 92%
    09:00 +17°C° 0.1 mm 4 mps 741 mmHg 92%
    10:00 +15°C° 0.1 mm 5 mps 741 mmHg 92%
    11:00 +14°C° 0 mm 5 mps 742 mmHg 91%
    12:00 +13°C° 0 mm 5 mps 742 mmHg 90%
    13:00 +12°C° 0 mm 5 mps 743 mmHg 90%
    14:00 +11°C° 0 mm 6 mps 743 mmHg 88%
    15:00 +11°C° 0 mm 6 mps 744 mmHg 86%
    16:00 +11°C° 0 mm 6 mps 744 mmHg 84%
    17:00 +11°C° 0 mm 6 mps 745 mmHg 84%
    18:00 +10°C° 0 mm 5 mps 745 mmHg 84%
    19:00 +9°C° 0 mm 5 mps 746 mmHg 83%
    20:00 +9°C° 0 mm 5 mps 747 mmHg 83%
    21:00 +10°C° 0 mm 4 mps 747 mmHg 82%
    22:00 +10°C° 0 mm 4 mps 748 mmHg 82%
    23:00 +8°C° 0 mm 4 mps 748 mmHg 82%

    30 May, Thursday

    Time Temperature Precipitation Wind Pressure Humidity
    00:00 +8°C° 0 mm 4 mps 748 mmHg 82%
    01:00 +8°C° 0 mm 3 mps 749 mmHg 83%
    02:00 +8°C° 0 mm 3 mps 749 mmHg 83%
    03:00 +7°C° 0 mm 3 mps 749 mmHg 84%
    04:00 +7°C° 0 mm 3 mps 750 mmHg 84%
    05:00 +8°C° 0 mm 3 mps 750 mmHg 82%
    06:00 +8°C° 0 mm 3 mps 750 mmHg 80%
    07:00 +9°C° 0 mm 3 mps 751 mmHg 77%
    08:00 +10°C° 0.1 mm 3 mps 751 mmHg 77%
    09:00 +10°C° 0.1 mm 3 mps 751 mmHg 76%
    10:00 +11°C° 0.1 mm 3 mps 751 mmHg 76%
    11:00 +12°C° 0 mm 3 mps 751 mmHg 72%
    12:00 +13°C° 0 mm 3 mps 751 mmHg 68%
    13:00 +16°C° 0 mm 3 mps 751 mmHg 64%
    14:00 +16°C° 0 mm 3 mps 751 mmHg 63%
    15:00 +17°C° 0 mm 3 mps 751 mmHg 62%
    16:00 +18°C° 0 mm 3 mps 751 mmHg 61%
    17:00 +17°C° 0 mm 2 mps 751 mmHg 65%
    18:00 +16°C° 0 mm 1 mps 751 mmHg 69%
    19:00 +15°C° 0 mm 1 mps 751 mmHg 74%
    20:00 +14°C° 0 mm 1 mps 751 mmHg 75%
    21:00 +13°C° 0 mm 1 mps 751 mmHg 76%
    22:00 +12°C° 0 mm 1 mps 751 mmHg 78%
    23:00 +12°C° 0 mm 1 mps 751 mmHg 78%

    31 May, Friday

    Time Temperature Precipitation Wind Pressure Humidity
    00:00 +11°C° 0 mm 1 mps 750 mmHg 78%
    01:00 +10°C° 0 mm 1 mps 750 mmHg 78%
    02:00 +10°C° 0 mm 1 mps 750 mmHg 79%
    03:00 +10°C° 0 mm 1 mps 750 mmHg 79%
    04:00 +10°C° 0 mm 1 mps 749 mmHg 79%
    05:00 +12°C° 0 mm 1 mps 749 mmHg 74%
    06:00 +13°C° 0 mm 1 mps 749 mmHg 69%
    07:00 +14°C° 0 mm 0 mps 749 mmHg 64%
    08:00 +18°C° 0 mm 1 mps 749 mmHg 61%
    09:00 +19°C° 0 mm 1 mps 748 mmHg 58%
    10:00 +20°C° 0 mm 1 mps 748 mmHg 55%
    11:00 +20°C° 0 mm 2 mps 748 mmHg 54%
    12:00 +20°C° 0 mm 2 mps 747 mmHg 53%
    13:00 +21°C° 0 mm 2 mps 747 mmHg 51%
    14:00 +21°C° 0 mm 2 mps 747 mmHg 52%
    15:00 +22°C° 0 mm 1 mps 747 mmHg 52%
    16:00 +22°C° 0 mm 1 mps 747 mmHg 52%
    17:00 +19°C° 0 mm 3 mps 747 mmHg 62%
    18:00 +17°C° 0 mm 4 mps 748 mmHg 72%
    19:00 +14°C° 0 mm 6 mps 748 mmHg 83%
    20:00 +11°C° 0.2 mm 6 mps 748 mmHg 85%
    21:00 +9°C° 0.2 mm 7 mps 749 mmHg 87%
    22:00 +6°C° 0.2 mm 8 mps 750 mmHg 89%
    23:00 +6°C° 0.8 mm 7 mps 750 mmHg 88%
    Show more